Беляновец, ТХ Measurements

Back to Overview

Timestamp Temperature Humidity
5/4/2026 5:46:45 PM 21,0 C 41.0%
5/4/2026 5:39:44 PM 21,4 C 41.0%
5/4/2026 5:32:42 PM 21,6 C 40.0%
5/4/2026 5:25:37 PM 21,6 C 41.0%
5/4/2026 5:18:33 PM 21,7 C 41.0%
5/4/2026 5:11:31 PM 21,7 C 42.0%
5/4/2026 5:04:28 PM 21,4 C 41.0%
5/4/2026 4:57:25 PM 21,3 C 41.0%
5/4/2026 4:50:22 PM 21,2 C 41.0%
5/4/2026 4:43:18 PM 21,3 C 40.0%
5/4/2026 4:36:15 PM 21,4 C 41.0%
5/4/2026 4:29:10 PM 21,6 C 41.0%
5/4/2026 4:22:08 PM 22,0 C 41.0%
5/4/2026 4:15:05 PM 22,1 C 41.0%
5/4/2026 4:08:01 PM 21,9 C 41.0%
5/4/2026 4:00:59 PM 21,8 C 42.0%
5/4/2026 3:53:56 PM 21,5 C 41.0%
5/4/2026 3:46:52 PM 21,3 C 41.0%
5/4/2026 3:39:48 PM 21,2 C 41.0%
5/4/2026 3:32:44 PM 21,3 C 43.0%
5/4/2026 3:25:41 PM 21,4 C 41.0%
5/4/2026 3:18:38 PM 21,1 C 41.0%
5/4/2026 3:11:36 PM 20,8 C 43.0%
5/4/2026 3:04:34 PM 20,8 C 43.0%
5/4/2026 2:57:30 PM 21,0 C 42.0%
5/4/2026 2:50:26 PM 20,8 C 42.0%
5/4/2026 2:43:24 PM 20,8 C 42.0%
5/4/2026 2:36:21 PM 20,7 C 42.0%
5/4/2026 2:29:17 PM 20,7 C 43.0%
5/4/2026 2:22:14 PM 20,6 C 43.0%
5/4/2026 2:15:12 PM 20,6 C 41.0%
5/4/2026 2:08:09 PM 20,5 C 45.0%
5/4/2026 2:01:06 PM 20,2 C 44.0%
5/4/2026 1:54:04 PM 20,1 C 44.0%
5/4/2026 1:47:02 PM 20,1 C 44.0%
5/4/2026 1:39:57 PM 20,0 C 45.0%
5/4/2026 1:32:55 PM 19,6 C 45.0%
5/4/2026 1:25:51 PM 19,5 C 45.0%
5/4/2026 1:18:48 PM 19,6 C 44.0%
5/4/2026 1:11:44 PM 19,3 C 46.0%
5/4/2026 1:04:39 PM 19,3 C 45.0%
5/4/2026 12:57:43 PM 19,0 C 47.0%
5/4/2026 12:01:16 PM 17,3 C 47.0%
5/4/2026 11:54:20 AM 17,2 C 46.0%
5/4/2026 11:18:55 AM 15,7 C 52.0%
5/4/2026 11:11:59 AM 15,4 C 55.0%
5/4/2026 11:04:47 AM 15,0 C 55.0%
5/4/2026 10:57:45 AM 14,8 C 54.0%
5/4/2026 10:50:42 AM 14,6 C 54.0%
5/4/2026 10:43:40 AM 14,3 C 59.0%
5/4/2026 10:36:37 AM 13,9 C 60.0%
5/4/2026 10:29:36 AM 13,6 C 61.0%
5/4/2026 10:22:34 AM 13,3 C 64.0%
5/4/2026 10:15:49 AM 12,9 C 69.0%
5/4/2026 10:08:45 AM 12,4 C 70.0%
5/4/2026 10:01:43 AM 11,8 C 72.0%
5/4/2026 9:54:41 AM 11,1 C 74.0%
5/4/2026 9:48:32 AM 10,5 C 79.0%
5/4/2026 9:41:28 AM 9,6 C 79.0%
5/4/2026 9:34:24 AM 8,6 C 79.0%
5/4/2026 9:27:20 AM 7,8 C 83.0%
5/4/2026 9:20:15 AM 6,9 C 84.0%
5/4/2026 9:13:13 AM 6,3 C 85.0%
5/4/2026 9:06:10 AM 5,9 C 86.0%
5/4/2026 8:59:07 AM 5,4 C 86.0%
5/4/2026 8:52:03 AM 4,9 C 86.0%
5/4/2026 8:45:01 AM 4,5 C 86.0%
5/4/2026 8:37:57 AM 4,0 C 86.0%
5/4/2026 8:30:54 AM 3,7 C 86.0%
5/4/2026 8:23:53 AM 3,5 C 86.0%
5/4/2026 8:16:51 AM 3,4 C 86.0%
5/4/2026 8:09:48 AM 3,0 C 87.0%
5/4/2026 8:02:44 AM 2,5 C 87.0%
5/4/2026 7:55:48 AM 2,2 C 87.0%
5/4/2026 7:48:40 AM 2,1 C 87.0%
5/4/2026 7:41:38 AM 2,2 C 87.0%
5/4/2026 7:34:42 AM 1,9 C 88.0%
5/4/2026 7:27:31 AM 1,1 C 89.0%
5/4/2026 7:20:35 AM 0,5 C 89.0%
5/4/2026 7:13:26 AM 0,3 C 89.0%
5/4/2026 7:06:30 AM 0,0 C 88.0%
5/4/2026 5:55:57 AM 0,3 C 87.0%
5/4/2026 5:49:01 AM 0,4 C 87.0%
5/4/2026 5:34:45 AM 1,0 C 87.0%
5/4/2026 5:27:42 AM 1,2 C 87.0%
5/4/2026 5:20:46 AM 1,4 C 87.0%
5/4/2026 5:13:35 AM 1,3 C 88.0%
5/4/2026 5:06:39 AM 1,4 C 88.0%
5/4/2026 3:06:46 AM 1,3 C 86.0%
5/4/2026 2:59:42 AM 1,3 C 86.0%
5/4/2026 2:52:46 AM 1,4 C 86.0%
5/4/2026 2:38:33 AM 1,1 C 86.0%
5/4/2026 2:31:37 AM 1,2 C 86.0%
5/4/2026 2:10:22 AM 1,4 C 85.0%
5/4/2026 2:03:26 AM 1,7 C 85.0%
5/4/2026 1:49:11 AM 1,6 C 85.0%
5/4/2026 1:42:15 AM 1,5 C 85.0%
5/4/2026 12:45:44 AM 1,8 C 84.0%
5/4/2026 12:38:41 AM 1,9 C 84.0%
5/4/2026 12:31:45 AM 2,2 C 84.0%
5/4/2026 12:24:36 AM 2,2 C 85.0%
5/4/2026 12:17:40 AM 2,0 C 85.0%
5/4/2026 12:10:31 AM 2,0 C 84.0%
5/4/2026 12:03:35 AM 2,0 C 84.0%